Weather History for KDNS - May, 2013

Change the Weather History Date:

Tuesday, May 21, 2013

  Actual Average Record
Temperature  
Mean Temperature 58 °F -  
Max Temperature 62 °F 69 °F 87 °F (2004)
Min Temperature 55 °F 49 °F -99 °F (1999)
Degree Days  
Heating Degree Days 6    
Growing Degree Days 8 (Base 50)    
Moisture  
Dew Point 51 °F    
Average Humidity 76    
Maximum Humidity 100    
Minimum Humidity 59    
Precipitation  
Precipitation 0.00 in - - ()
Sea Level Pressure  
Sea Level Pressure 29.63 in    
Wind  
Wind Speed 12 mph (WSW)    
Max Wind Speed 23 mph    
Max Gust Speed 29 mph    
Visibility 10 miles    
Events Rain    
Averages and records for this station are not official NWS values.
T = Trace of Precipitation, MM = Missing Value Source: NWS Daily Summary

Daily Weather History Graph

Daily Weather History Graph

Search for Another Location

Airport or City:

Trip Planner

Search our weather history database for the weather conditions in past years. The results will help you decide how hot, cold, wet, or windy it might be!

Date:

Astronomy

May. 21, 2013 Rise Set
Actual Time 5:55 AM CDT 8:41 PM CDT
Civil Twilight 5:22 AM CDT 9:14 PM CDT
Nautical Twilight 4:41 AM CDT 9:55 PM CDT
Astronomical Twilight 3:54 AM CDT 10:42 PM CDT
Moon 4:52 PM CDT (5/21) 3:27 AM CDT (5/21)
Length of Visible Light 15h 51m
Length of Day
14h 46m
Waxing Gibbous, 84% of the Moon is Illuminated
May 21
Waxing Gibbous
May 24
Full
May 31
Last Quarter
Jun 8
New
Jun 16
First Quarter

Hourly Weather History & Observations

Time (CDT) Temp. Dew Point Humidity Pressure Visibility Wind Dir Wind Speed Gust Speed Precip Events Conditions
12:15 AM 60.8 °F 51.8 °F 72% 29.56 in 10.0 mi SW 8.1 mph - N/A   Clear
12:35 AM 59.0 °F 51.8 °F 77% 29.56 in 10.0 mi WSW 5.8 mph - N/A   Clear
12:55 AM 59.0 °F 51.8 °F 77% 29.56 in 10.0 mi SW 6.9 mph - N/A   Partly Cloudy
1:15 AM 59.0 °F 51.8 °F 77% 29.56 in 10.0 mi SW 5.8 mph - N/A   Clear
1:35 AM 57.2 °F 51.8 °F 82% 29.56 in 10.0 mi SW 6.9 mph - N/A   Scattered Clouds
1:55 AM 59.0 °F 53.6 °F 82% 29.57 in 10.0 mi SW 6.9 mph - N/A   Overcast
2:55 AM 57.2 °F 55.4 °F 94% 29.58 in 10.0 mi WSW 8.1 mph - N/A   Overcast
3:15 AM 57.2 °F 53.6 °F 88% 29.58 in 10.0 mi WSW 8.1 mph - N/A   Mostly Cloudy
3:55 AM 57.2 °F 53.6 °F 88% 29.58 in 10.0 mi West 12.7 mph - N/A   Mostly Cloudy
5:55 AM 55.4 °F 50.0 °F 82% 29.61 in 10.0 mi WSW 8.1 mph - N/A   Overcast
6:15 AM 55.4 °F 50.0 °F 82% 29.61 in 10.0 mi WSW 12.7 mph - N/A   Overcast
7:35 AM 55.4 °F 50.0 °F 82% 29.63 in 10.0 mi WSW 16.1 mph - N/A   Overcast
8:15 AM 55.4 °F 50.0 °F 82% 29.63 in 10.0 mi WSW 10.4 mph - N/A   Overcast
8:35 AM 57.2 °F 48.2 °F 72% 29.64 in 10.0 mi WSW 10.4 mph 17.3 mph N/A   Overcast
8:55 AM 57.2 °F 48.2 °F 72% 29.64 in 10.0 mi WSW 15.0 mph - N/A   Overcast
9:15 AM 57.2 °F 48.2 °F 72% 29.64 in 10.0 mi WSW 16.1 mph - N/A   Overcast
9:35 AM 57.2 °F 48.2 °F 72% 29.64 in 10.0 mi WSW 13.8 mph 19.6 mph N/A   Overcast
9:55 AM 57.2 °F 48.2 °F 72% 29.64 in 10.0 mi WSW 15.0 mph 21.9 mph N/A   Overcast
10:15 AM 59.0 °F 48.2 °F 67% 29.63 in 10.0 mi WSW 18.4 mph - N/A   Overcast
10:35 AM 59.0 °F 48.2 °F 67% 29.63 in 10.0 mi WSW 13.8 mph 21.9 mph N/A   Overcast
10:55 AM 59.0 °F 48.2 °F 67% 29.64 in 10.0 mi SW 18.4 mph 25.3 mph N/A   Overcast
11:15 AM 59.0 °F 48.2 °F 67% 29.63 in 10.0 mi WSW 16.1 mph - N/A   Overcast
11:35 AM 59.0 °F 48.2 °F 67% 29.63 in 10.0 mi WSW 13.8 mph 20.7 mph N/A   Overcast
11:55 AM 59.0 °F 48.2 °F 67% 29.64 in 10.0 mi WSW 13.8 mph 21.9 mph N/A   Overcast
12:15 PM 59.0 °F 48.2 °F 67% 29.63 in 10.0 mi SW 13.8 mph 21.9 mph N/A   Overcast
12:35 PM 59.0 °F 46.4 °F 63% 29.64 in 10.0 mi WSW 18.4 mph 25.3 mph N/A   Overcast
12:55 PM 59.0 °F 46.4 °F 63% 29.64 in 10.0 mi WSW 15.0 mph - N/A   Overcast
1:15 PM 59.0 °F 46.4 °F 63% 29.64 in 10.0 mi SW 16.1 mph 27.6 mph N/A   Overcast
1:35 PM 59.0 °F 48.2 °F 67% 29.66 in 10.0 mi SW 15.0 mph 24.2 mph N/A   Overcast
1:55 PM 59.0 °F 46.4 °F 63% 29.66 in 10.0 mi SW 15.0 mph 21.9 mph N/A   Overcast
2:15 PM 60.8 °F 46.4 °F 59% 29.66 in 10.0 mi SW 19.6 mph 27.6 mph N/A   Overcast
2:35 PM 59.0 °F 46.4 °F 63% 29.66 in 10.0 mi SW 21.9 mph 27.6 mph N/A   Overcast
2:55 PM 60.8 °F 48.2 °F 63% 29.66 in 10.0 mi WSW 17.3 mph 25.3 mph N/A   Overcast
3:15 PM 60.8 °F 46.4 °F 59% 29.66 in 10.0 mi SW 18.4 mph 28.8 mph N/A   Overcast
3:35 PM 60.8 °F 48.2 °F 63% 29.65 in 10.0 mi SW 20.7 mph - N/A   Overcast
3:55 PM 60.8 °F 48.2 °F 63% 29.65 in 10.0 mi SW 20.7 mph 28.8 mph N/A   Overcast
4:15 PM 62.6 °F 48.2 °F 59% 29.65 in 10.0 mi WSW 20.7 mph - N/A   Mostly Cloudy
4:35 PM 62.6 °F 48.2 °F 59% 29.63 in 10.0 mi WSW 19.6 mph 28.8 mph N/A   Mostly Cloudy
4:55 PM 62.6 °F 48.2 °F 59% 29.64 in 10.0 mi WSW 23.0 mph 28.8 mph N/A   Scattered Clouds
5:15 PM 60.8 °F 48.2 °F 63% 29.63 in 10.0 mi WSW 18.4 mph 26.5 mph N/A   Mostly Cloudy
5:35 PM 60.8 °F 50.0 °F 68% 29.63 in 10.0 mi WSW 13.8 mph 25.3 mph N/A   Overcast
5:55 PM 60.8 °F 50.0 °F 68% 29.63 in 10.0 mi SW 18.4 mph 25.3 mph N/A   Overcast
6:15 PM 60.8 °F 50.0 °F 68% 29.63 in 10.0 mi SW 17.3 mph - N/A   Overcast
6:35 PM 60.8 °F 51.8 °F 72% 29.63 in 10.0 mi SW 18.4 mph 25.3 mph N/A   Overcast
6:55 PM 59.0 °F 51.8 °F 77% 29.64 in 10.0 mi WSW 15.0 mph 25.3 mph N/A   Overcast
7:15 PM 59.0 °F 53.6 °F 82% 29.64 in 10.0 mi SW 20.7 mph - N/A   Overcast
7:35 PM 57.2 °F 55.4 °F 94% 29.65 in 4.0 mi WSW 12.7 mph 21.9 mph N/A   Overcast
7:55 PM 57.2 °F 55.4 °F 94% 29.64 in 2.5 mi SW 13.8 mph 20.7 mph N/A Rain Light Rain
8:15 PM 57.2 °F 55.4 °F 94% 29.63 in 10.0 mi WSW 10.4 mph - N/A   Overcast
8:35 PM 57.2 °F 55.4 °F 94% 29.64 in 10.0 mi WSW 10.4 mph - N/A   Overcast
8:55 PM 57.2 °F 55.4 °F 94% 29.64 in 10.0 mi West 10.4 mph - N/A   Overcast
9:15 PM 57.2 °F 55.4 °F 94% 29.66 in 7.0 mi West 15.0 mph 21.9 mph N/A   Overcast
9:35 PM 57.2 °F 55.4 °F 94% 29.66 in 10.0 mi West 15.0 mph 21.9 mph N/A   Overcast
9:55 PM 55.4 °F 55.4 °F 100% 29.67 in 9.0 mi West 16.1 mph - N/A   Overcast
10:15 PM 55.4 °F 53.6 °F 94% 29.67 in 9.0 mi WNW 13.8 mph 20.7 mph N/A   Overcast
10:35 PM 55.4 °F 53.6 °F 94% 29.67 in 6.0 mi WNW 11.5 mph 18.4 mph N/A   Overcast
10:55 PM 55.4 °F 53.6 °F 94% 29.67 in 10.0 mi West 10.4 mph 18.4 mph N/A   Overcast
11:15 PM 55.4 °F 53.6 °F 94% 29.67 in 10.0 mi West 9.2 mph 16.1 mph N/A   Overcast
11:35 PM 55.4 °F 53.6 °F 94% 29.67 in 7.0 mi WNW 9.2 mph - N/A   Overcast